1521946801.12,40716,9.25,72378.5,-11.09,-41.35,-41.61,0,*6C
1521946802.36,40717,9.31,72378.3,-11.09,-41.17,-41.41,0,*6F
1521946803.62,40718,9.25,72376.5,-11.09,-40.97,-41.17,0,*6A
1521946804.86,40719,9.25,72378.8,-11.05,-40.97,-41.29,0,*6A
1521946806.12,40720,9.25,72378.8,-11.09,-40.97,-41.17,0,*61
1521946807.38,40721,9.31,72376.8,-11.09,-41.17,-41.35,0,*69
1521946808.62,40722,9.31,72380.8,-11.05,-41.17,-41.35,0,*66
1521946809.91,40723,9.25,72376.0,-11.09,-41.55,-41.55,0,*6B
1521946811.2,40724,9.25,72378.0,-11.09,-41.35,-41.55,0,*6A
1521946812.41,40725,9.25,72374.5,-11.05,-41.11,-41.29,0,*6A
1521946813.67,40726,9.31,72376.3,-11.09,-41.17,-41.23,0,*69
1521946814.94,40727,9.31,72382.0,-11.09,-40.85,-41.03,0,*60
1521946816.18,40728,9.25,72376.8,-11.05,-40.97,-41.29,0,*68
1521946817.42,40729,9.25,72376.3,-11.05,-40.97,-41.29,0,*69
1521946818.66,40730,9.25,72376.0,-11.05,-41.29,-41.35,0,*68
1521946819.88,40731,9.25,72378.5,-11.05,-41.17,-41.49,0,*6F
1521946821.15,40732,9.25,72376.5,-11.05,-41.35,-41.35,0,*67
1521946822.37,40733,9.25,72378.0,-11.05,-41.11,-41.29,0,*6D
1521946823.61,40734,9.31,72376.0,-11.05,-41.11,-41.35,0,*67
1521946824.85,40735,9.31,72378.3,-11.05,-41.29,-41.35,0,*6D
1521946826.06,40736,9.31,72380.0,-11.05,-41.29,-41.49,0,*65
1521946827.27,40737,9.25,72378.5,-11.05,-41.29,-41.49,0,*64
1521946828.57,40738,9.25,72376.3,-11.03,-41.35,-41.35,0,*6B
1521946829.81,40739,9.31,72376.8,-11.03,-41.17,-41.49,0,*61
1521946831.05,40740,9.31,72376.8,-11.03,-41.49,-41.49,0,*64
1521946832.31,40741,9.31,72376.8,-11.03,-41.49,-41.55,0,*68
1521946833.56,40742,9.31,72380.8,-11.05,-41.67,-41.73,0,*65
1521946834.8,40743,9.25,72378.5,-11.03,-41.17,-41.49,0,*6C
1521946836.03,40744,9.25,72376.3,-11.03,-41.29,-41.49,0,*66
1521946837.27,40745,9.25,72378.5,-11.03,-41.29,-41.49,0,*67
1521946838.51,40746,9.25,72378.0,-11.05,-41.17,-41.35,0,*64
1521946839.75,40747,9.25,72376.3,-11.03,-41.17,-41.49,0,*68
1521946841.05,40748,9.25,72378.5,-11.03,-41.35,-41.67,0,*6B
1521946842.35,40749,9.25,72376.0,-11.03,-41.35,-41.67,0,*6A
1521946843.62,40750,9.25,72376.0,-11.03,-41.11,-41.35,0,*63
1521946844.85,40751,9.31,72378.8,-11.03,-41.29,-41.49,0,*62
1521946846.12,40752,9.31,72380.0,-11.03,-40.97,-41.29,0,*63
1521946847.36,40753,9.31,72382.3,-11.03,-41.17,-41.29,0,*6B
1521946848.62,40754,9.25,72378.3,-11.03,-41.29,-41.35,0,*6C
1521946849.83,40755,9.31,72382.3,-11.01,-41.11,-41.29,0,*69
1521946851.1,40756,9.25,72376.5,-11.03,-41.49,-41.55,0,*6E
1521946852.34,40757,9.25,72376.3,-11.03,-41.17,-41.29,0,*6F
1521946853.59,40758,9.25,72376.3,-11.03,-40.91,-41.29,0,*6F
1521946854.86,40759,9.31,72378.8,-11.03,-41.17,-41.23,0,*6B
1521946856.12,40760,9.25,72380.0,-11.03,-41.29,-41.35,0,*6B
1521946857.39,40761,9.25,72378.3,-11.03,-41.49,-41.67,0,*6B
1521946858.61,40762,9.25,72376.3,-11.01,-41.03,-41.29,0,*6E
1521946859.86,40763,9.31,72380.5,-11.03,-40.91,-41.29,0,*67
1521946861.07,40764,9.25,72378.8,-11.01,-41.29,-41.61,0,*6C
1521946862.31,40765,9.25,72376.3,-11.01,-41.49,-41.67,0,*6D
1521946863.55,40766,9.31,72380.3,-11.01,-41.67,-41.73,0,*67
1521946864.77,40767,9.25,72380.0,-11.01,-41.61,-41.73,0,*60
1521946866.06,40768,9.25,72376.0,-11.03,-41.67,-41.81,0,*66
1521946867.33,40769,9.25,72378.3,-11.03,-41.55,-41.73,0,*6B
1521946868.6,40770,9.25,72376.0,-11.03,-41.49,-41.67,0,*6B
1521946869.83,40771,9.25,72376.3,-11.03,-41.29,-41.49,0,*60
1521946871.1,40772,9.25,72374.8,-11.03,-41.29,-41.35,0,*68
1521946872.37,40773,9.25,72376.8,-11.03,-41.49,-41.67,0,*68
1521946873.67,40774,9.25,72376.3,-11.03,-41.55,-41.67,0,*62
1521946874.94,40775,9.25,72376.0,-11.03,-41.49,-41.67,0,*6E
1521946876.21,40776,9.25,72376.0,-11.03,-41.55,-41.73,0,*65
1521946877.5,40777,9.25,72378.0,-11.03,-41.55,-41.81,0,*69
1521946878.74,40778,9.25,72374.0,-11.01,-41.49,-41.67,0,*61
1521946880.01,40779,9.25,72378.0,-11.03,-41.49,-41.67,0,*62
1521946881.22,40780,9.25,72374.8,-11.01,-41.29,-41.49,0,*6C
1521946882.49,40781,9.25,72376.0,-11.03,-41.17,-41.35,0,*69
1521946883.75,40782,9.25,72378.0,-11.03,-41.35,-41.49,0,*61
1521946885.02,40783,9.31,72378.5,-11.03,-41.29,-41.35,0,*66
1521946886.26,40784,9.25,72378.0,-11.03,-41.11,-41.29,0,*67
1521946887.49,40785,9.25,72376.5,-11.03,-41.17,-41.49,0,*66
1521946888.72,40786,9.31,72380.0,-11.01,-41.03,-41.29,0,*64
1521946889.93,40787,9.31,72380.5,-11.01,-41.41,-41.49,0,*65
1521946891.23,40788,9.25,72376.8,-11.03,-41.35,-41.55,0,*66
1521946892.53,40789,9.25,72378.5,-11.03,-41.67,-41.67,0,*61
1521946893.8,40790,9.25,72376.5,-11.03,-41.49,-41.67,0,*65
1521946895.04,40791,9.25,72376.0,-11.03,-41.49,-41.49,0,*68
1521946896.27,40792,9.25,72376.0,-11.03,-41.29,-41.49,0,*6D
1521946897.54,40793,9.25,72378.8,-11.03,-40.97,-41.17,0,*63
1521946898.78,40794,9.25,72378.0,-11.03,-41.17,-41.29,0,*60
1521946900.02,40795,9.25,72378.0,-11.01,-41.03,-41.23,0,*6C
1521946901.27,40796,9.25,72376.5,-11.01,-41.49,-41.67,0,*61
1521946902.5,40797,9.25,72378.8,-11.01,-41.29,-41.55,0,*67
1521946903.71,40798,9.25,72378.3,-11.01,-41.29,-41.49,0,*65
1521946904.95,40799,9.31,72380.3,-11.01,-41.29,-41.67,0,*68
1521946906.16,40800,9.25,72378.3,-11.01,-41.49,-41.61,0,*67
1521946907.43,40801,9.25,72378.3,-11.03,-41.67,-41.73,0,*6B
1521946908.71,40802,9.25,72376.8,-11.03,-41.49,-41.67,0,*61
1521946910.0,40803,9.25,72380.3,-11.03,-41.55,-41.67,0,*6D
1521946911.27,40804,9.25,72378.5,-11.03,-41.29,-41.35,0,*66
1521946912.48,40805,9.25,72378.8,-11.01,-41.11,-41.29,0,*63
1521946913.73,40806,9.25,72378.3,-11.01,-41.49,-41.67,0,*67
1521946914.96,40807,9.25,72376.5,-11.01,-41.23,-41.61,0,*6C
1521946916.21,40808,9.25,72378.8,-11.01,-41.49,-41.67,0,*69
1521946917.48,40809,9.25,72376.8,-11.03,-41.67,-41.73,0,*63
1521946918.78,40810,9.25,72380.3,-11.03,-41.55,-41.67,0,*6F
1521946920.05,40811,9.31,72380.3,-11.03,-41.49,-41.67,0,*63
1521946921.26,40812,9.31,72378.8,-11.01,-41.49,-41.61,0,*64
1521946922.56,40813,9.25,72378.0,-11.03,-41.35,-41.55,0,*6B
1521946923.77,40814,9.25,72376.8,-11.01,-41.49,-41.73,0,*61
1521946925.06,40815,9.25,72376.5,-11.03,-41.67,-41.81,0,*63
1521946926.31,40816,9.25,72376.8,-11.01,-41.49,-41.67,0,*66
1521946927.51,40817,9.25,72376.5,-11.01,-41.29,-41.49,0,*6D
1521946928.75,40818,9.25,72378.8,-11.03,-41.29,-41.49,0,*60
1521946929.99,40819,9.25,72378.0,-11.03,-41.17,-41.49,0,*6C
1521946931.25,40820,9.25,72378.8,-11.03,-41.17,-41.35,0,*6D
1521946932.5,40821,9.25,72378.8,-11.01,-41.23,-41.29,0,*64
1521946933.71,40822,9.25,72374.3,-11.01,-41.29,-41.61,0,*61
1521946934.97,40823,9.25,72378.0,-11.03,-41.17,-41.35,0,*6E
1521946936.18,40824,9.25,72376.3,-11.01,-41.41,-41.61,0,*69
1521946937.43,40825,9.25,72376.5,-11.01,-41.23,-41.41,0,*6E
1521946938.64,40826,9.25,72374.3,-11.01,-41.11,-41.41,0,*6C
1521946939.91,40827,9.25,72378.5,-11.03,-41.17,-41.35,0,*6A
1521946941.12,40828,9.25,72376.5,-11.01,-41.29,-41.61,0,*6B
1521946942.36,40829,9.25,72374.8,-11.01,-41.23,-41.29,0,*6C
1521946943.61,40830,9.25,72378.3,-11.01,-40.91,-41.23,0,*66
1521946944.85,40831,9.25,72376.3,-11.03,-41.29,-41.29,0,*6D
1521946946.09,40832,9.25,72378.3,-11.01,-40.91,-41.23,0,*64
1521946947.3,40833,9.25,72376.8,-11.01,-41.29,-41.49,0,*6B
1521946948.54,40834,9.25,72378.8,-11.01,-41.23,-41.61,0,*6C
1521946949.76,40835,9.25,72374.3,-11.01,-41.03,-41.29,0,*63
1521946950.97,40836,9.25,72380.0,-11.01,-41.11,-41.29,0,*63
1521946952.22,40837,9.25,72378.5,-11.01,-40.91,-41.23,0,*61
1521946953.46,40838,9.25,72378.8,-11.01,-41.11,-41.23,0,*67
1521946954.7,40839,9.25,72376.3,-11.01,-41.23,-41.41,0,*63
1521946955.94,40840,9.25,72382.0,-10.99,-41.41,-41.61,0,*6B
1521946957.18,40841,9.25,72376.0,-10.99,-41.41,-41.61,0,*6A
1521946958.45,40842,9.25,72376.8,-10.99,-41.41,-41.67,0,*6F
1521946959.69,40843,9.25,72378.0,-10.99,-41.61,-41.73,0,*69
1521946960.92,40844,9.25,72378.8,-10.99,-41.49,-41.61,0,*67
1521946962.17,40845,9.25,72382.0,-11.01,-41.49,-41.67,0,*60
1521946963.4,40846,9.25,72378.5,-10.99,-41.41,-41.49,0,*67
1521946964.67,40847,9.25,72376.0,-10.99,-41.67,-41.73,0,*6B
1521946965.91,40848,9.25,72374.0,-10.99,-41.41,-41.49,0,*69
1521946967.18,40849,9.25,72378.5,-10.99,-41.23,-41.29,0,*6A
1521946968.41,40850,9.25,72376.5,-10.99,-41.29,-41.41,0,*66
1521946969.65,40851,9.25,72376.8,-10.99,-41.11,-41.41,0,*6C
1521946970.92,40852,9.25,72376.5,-10.99,-41.23,-41.41,0,*6E
1521946972.19,40853,9.25,72378.8,-10.99,-41.49,-41.67,0,*67
1521946973.42,40854,9.25,72380.0,-10.99,-41.49,-41.49,0,*6C
1521946974.69,40855,9.25,72378.3,-10.99,-41.61,-41.67,0,*6B
1521946975.96,40856,9.25,72378.5,-10.99,-41.41,-41.67,0,*6A
1521946977.21,40857,9.25,72376.0,-11.01,-41.23,-41.29,0,*65
1521946978.42,40858,9.25,72382.8,-11.01,-41.11,-41.29,0,*6B
1521946979.64,40859,9.25,72378.8,-11.01,-40.91,-41.11,0,*68
1521946980.89,40860,9.25,72378.8,-10.99,-41.03,-41.11,0,*68
1521946982.13,40861,9.25,72378.3,-10.97,-40.91,-41.23,0,*6C
1521946983.37,40862,9.25,72382.5,-10.97,-41.11,-41.23,0,*66
1521946984.61,40863,9.25,72378.0,-10.99,-41.29,-41.41,0,*66
1521946985.85,40864,9.25,72382.8,-10.97,-41.41,-41.67,0,*65
1521946987.1,40865,9.25,72376.0,-10.97,-41.23,-41.41,0,*64
1521946988.37,40866,9.25,72378.5,-10.99,-41.61,-41.67,0,*6B
1521946989.58,40867,9.25,72378.0,-10.97,-41.29,-41.49,0,*64
1521946990.81,40868,9.25,72374.8,-10.99,-41.41,-41.61,0,*61
1521946992.08,40869,9.25,72380.5,-10.99,-41.61,-41.67,0,*64
1521946993.32,40870,9.25,72376.8,-10.99,-41.29,-41.41,0,*64
1521946994.56,40871,9.25,72380.3,-10.99,-41.03,-41.29,0,*63
1521946995.81,40872,9.25,72376.5,-10.97,-41.23,-41.41,0,*62
1521946997.08,40873,9.25,72378.8,-10.99,-41.61,-41.67,0,*6F
1521946998.31,40874,9.25,72376.3,-10.99,-41.49,-41.61,0,*64
1521946999.54,40875,9.25,72376.0,-10.99,-41.29,-41.49,0,*69
1521947000.78,40876,9.25,72378.5,-10.99,-41.41,-41.61,0,*6E
1521947002.03,40877,9.25,72376.5,-10.97,-41.23,-41.41,0,*67
1521947003.26,40878,9.25,72378.5,-10.99,-41.11,-41.41,0,*67
1521947004.53,40879,9.25,72378.5,-10.99,-41.23,-41.29,0,*69
1521947005.8,40880,9.25,72376.8,-10.99,-41.23,-41.41,0,*61
1521947007.04,40881,9.25,72378.3,-10.99,-41.03,-41.41,0,*62
1521947008.26,40882,9.25,72376.0,-10.97,-41.11,-41.41,0,*6C
1521947009.52,40883,9.25,72378.3,-10.99,-41.23,-41.49,0,*6A
1521947010.79,40884,9.25,72378.8,-10.99,-41.61,-41.67,0,*67
1521947012.04,40885,9.25,72376.0,-10.97,-40.91,-41.23,0,*66
1521947013.28,40886,9.25,72376.5,-10.97,-40.85,-41.11,0,*61
1521947014.53,40887,9.25,72376.3,-10.97,-41.03,-41.23,0,*6E
1521947015.79,40888,9.25,72376.3,-10.99,-41.11,-41.23,0,*6C
1521947017.03,40889,9.25,72378.8,-10.97,-41.49,-41.67,0,*6E
1521947018.28,40890,9.25,72380.5,-10.97,-41.67,-41.87,0,*64
1521947019.55,40891,9.25,72376.0,-10.99,-41.67,-41.73,0,*60
1521947020.76,40892,9.25,72378.5,-10.97,-41.49,-41.73,0,*61
1521947021.97,40893,9.25,72378.3,-10.97,-41.41,-41.49,0,*61
1521947023.19,40894,9.25,72378.8,-10.97,-41.61,-41.73,0,*6D
1521947024.4,40895,9.25,72376.8,-10.97,-41.49,-41.49,0,*6F
1521947025.64,40896,9.25,72380.3,-10.97,-41.23,-41.41,0,*68
1521947026.86,40897,9.25,72376.5,-10.97,-41.03,-41.29,0,*65
1521947028.16,40898,9.25,72378.3,-10.95,-41.23,-41.35,0,*67
1521947029.43,40899,9.25,72376.5,-10.95,-41.17,-41.23,0,*66
1521947030.69,40900,9.25,72378.3,-10.95,-40.97,-41.17,0,*69
1521947031.99,40901,9.25,72378.0,-10.95,-41.35,-41.55,0,*67
1521947033.29,40902,9.25,72376.8,-10.95,-41.23,-41.35,0,*65
1521947034.59,40903,9.25,72376.0,-10.95,-41.35,-41.55,0,*65
1521947035.82,40904,9.25,72376.0,-10.95,-41.41,-41.61,0,*66
1521947037.06,40905,9.25,72378.8,-10.93,-41.35,-41.49,0,*68
1521947038.31,40906,9.25,72378.3,-10.97,-41.41,-41.67,0,*60
1521947039.52,40907,9.25,72374.5,-10.97,-41.29,-41.41,0,*6B
1521947040.76,40908,9.25,72378.3,-10.97,-41.23,-41.41,0,*6E
1521947042.01,40909,9.25,72376.3,-10.97,-41.23,-41.29,0,*61
1521947043.3,40910,9.25,72376.8,-10.95,-41.23,-41.35,0,*66
1521947044.58,40911,9.25,72378.0,-10.95,-41.23,-41.41,0,*64
1521947045.85,40912,9.25,72374.5,-10.95,-41.41,-41.67,0,*67
1521947047.11,40913,9.25,72374.0,-10.95,-41.55,-41.61,0,*65
1521947048.41,40914,9.25,72378.5,-10.95,-41.35,-41.55,0,*63
1521947049.62,40915,9.25,72376.3,-10.97,-41.41,-41.61,0,*64
1521947050.83,40916,9.25,72376.8,-10.97,-41.29,-41.49,0,*63
1521947052.07,40917,9.25,72378.8,-10.97,-41.49,-41.67,0,*68
1521947053.37,40918,9.25,72374.3,-10.95,-41.35,-41.55,0,*6F
1521947054.64,40919,9.25,72378.0,-10.95,-41.17,-41.23,0,*6F
1521947055.87,40920,9.25,72378.5,-10.93,-40.97,-41.11,0,*6B
1521947057.15,40921,9.25,72378.5,-10.95,-40.85,-41.03,0,*6C
1521947058.36,40922,9.25,72376.8,-10.93,-41.11,-41.17,0,*60
1521947059.63,40923,9.25,72378.0,-10.95,-41.03,-41.35,0,*64
1521947060.9,40924,9.25,72380.0,-10.95,-41.03,-41.23,0,*64
1521947062.17,40925,9.25,72378.5,-10.95,-41.17,-41.35,0,*67
1521947063.44,40926,9.25,72376.0,-10.95,-40.79,-41.03,0,*68
1521947064.64,40927,9.25,72378.8,-10.93,-41.11,-41.29,0,*68
1521947065.89,40928,9.25,72378.3,-10.93,-40.73,-40.97,0,*66
1521947067.1,40929,9.25,72376.0,-10.93,-41.11,-41.29,0,*66
1521947068.33,40930,9.25,72372.5,-10.93,-41.35,-41.49,0,*6E
1521947069.6,40931,9.25,72378.8,-10.95,-41.55,-41.61,0,*65
1521947070.83,40932,9.25,72378.3,-10.93,-41.35,-41.49,0,*6C
1521947072.13,40933,9.25,72376.3,-10.95,-41.35,-41.55,0,*66
1521947073.37,40934,9.25,72382.0,-10.95,-41.17,-41.41,0,*64
1521947074.64,40935,9.25,72376.5,-10.95,-41.23,-41.41,0,*62
1521947075.85,40936,9.25,72380.8,-10.93,-41.17,-41.49,0,*68
1521947077.09,40937,9.25,72382.5,-10.93,-41.17,-41.35,0,*62
1521947078.3,40938,9.25,72376.3,-10.93,-40.91,-41.11,0,*64
1521947079.51,40939,9.25,72376.5,-10.93,-41.11,-41.29,0,*67
1521947080.72,40940,9.25,72378.5,-10.93,-41.29,-41.29,0,*62
1521947081.99,40941,9.25,72378.3,-10.93,-41.35,-41.35,0,*63
1521947083.26,40942,9.25,72378.5,-10.95,-41.41,-41.55,0,*63
1521947084.49,40943,9.25,72382.8,-10.93,-41.29,-41.55,0,*6A
1521947085.73,40944,9.25,72380.8,-10.93,-41.17,-41.35,0,*66
1521947086.97,40945,9.25,72376.3,-10.93,-41.35,-41.49,0,*6C
1521947088.21,40946,9.25,72378.8,-10.93,-41.35,-41.61,0,*65
1521947089.5,40947,9.25,72376.5,-10.95,-41.23,-41.55,0,*62
1521947090.74,40948,9.25,72378.3,-10.93,-41.49,-41.67,0,*66
1521947091.98,40949,9.25,72378.3,-10.93,-41.49,-41.55,0,*66
1521947093.24,40950,9.25,72378.8,-10.93,-41.55,-41.81,0,*6A
1521947094.5,40951,9.25,72376.8,-10.93,-41.55,-41.81,0,*6B
1521947095.76,40952,9.25,72376.5,-10.95,-41.61,-41.81,0,*69
1521947097.0,40953,9.25,72380.3,-10.93,-41.29,-41.55,0,*6B
1521947098.27,40954,9.25,72378.8,-10.95,-41.61,-41.67,0,*67
1521947099.56,40955,9.25,72382.3,-10.95,-41.55,-41.81,0,*69
1521947100.82,40956,9.25,72380.8,-10.93,-41.35,-41.55,0,*63
1521947102.03,40957,9.25,72378.5,-10.93,-41.29,-41.49,0,*62
1521947103.3,40958,9.25,72376.3,-10.95,-41.35,-41.41,0,*6E
1521947104.6,40959,9.25,72380.0,-10.95,-41.23,-41.35,0,*6B
1521947105.89,40960,9.25,72380.3,-10.95,-41.35,-41.55,0,*60
1521947107.13,40961,9.25,72378.5,-10.93,-41.29,-41.55,0,*6A
1521947108.43,40962,9.25,72378.5,-10.95,-41.35,-41.55,0,*62
1521947109.69,40963,9.25,72380.3,-10.95,-41.61,-41.81,0,*6B
1521947110.99,40964,9.25,72382.8,-10.95,-41.35,-41.55,0,*64
1521947112.28,40965,9.25,72378.8,-10.95,-41.55,-41.67,0,*62
1521947113.53,40966,9.25,72378.8,-10.95,-41.61,-41.87,0,*68
1521947114.79,40967,9.25,72378.8,-10.93,-41.55,-41.81,0,*6E
1521947116.03,40968,9.25,72376.5,-10.95,-41.61,-41.99,0,*69
1521947117.27,40969,9.25,72378.8,-10.95,-41.61,-41.99,0,*68
1521947118.5,40970,9.25,72380.0,-10.93,-41.61,-41.81,0,*6F
1521947119.77,40971,9.25,72376.8,-10.97,-41.67,-41.93,0,*6F
1521947121.03,40972,9.25,72380.5,-10.97,-41.67,-42.05,0,*60
1521947122.3,40973,9.25,72378.5,-10.99,-41.67,-41.73,0,*6D
1521947123.54,40974,9.25,72376.5,-10.97,-41.61,-41.67,0,*67
1521947124.78,40975,9.25,72376.0,-10.97,-41.61,-41.93,0,*6D
1521947126.03,40976,9.25,72376.0,-10.97,-41.67,-41.87,0,*6D
1521947127.3,40977,9.25,72382.3,-10.99,-41.61,-41.67,0,*6A
1521947128.51,40978,9.25,72382.5,-10.97,-41.61,-41.73,0,*6E
1521947129.74,40979,9.25,72380.0,-10.99,-41.29,-41.61,0,*6E
1521947130.99,40980,9.25,72380.5,-10.97,-41.41,-41.67,0,*6E
1521947132.24,40981,9.25,72380.5,-10.97,-41.61,-41.67,0,*6D
1521947133.48,40982,9.25,72380.0,-10.97,-41.67,-41.73,0,*6D
1521947134.72,40983,9.25,72378.3,-10.97,-41.73,-42.05,0,*6B
1521947135.93,40984,9.25,72376.8,-10.97,-41.73,-42.13,0,*6B
1521947137.17,40985,9.25,72382.3,-10.97,-41.61,-41.67,0,*69
1521947138.39,40986,9.25,72378.0,-10.97,-41.49,-41.73,0,*65
1521947139.63,40987,9.25,72380.5,-10.97,-41.49,-41.67,0,*61
1521947140.87,40988,9.25,72376.8,-10.99,-41.49,-41.87,0,*6E
1521947142.16,40989,9.25,72378.3,-10.99,-41.67,-41.93,0,*66
1521947143.44,40990,9.25,72380.5,-10.99,-41.67,-41.93,0,*6E
1521947144.73,40991,9.25,72380.5,-10.99,-41.67,-41.93,0,*6F
1521947145.96,40992,9.25,72380.0,-10.99,-41.29,-41.61,0,*6B
1521947147.2,40993,9.25,72378.8,-10.99,-41.29,-41.41,0,*68
1521947148.43,40994,9.25,72378.5,-10.99,-41.49,-41.61,0,*6B
1521947149.67,40995,9.25,72378.5,-10.99,-41.61,-41.87,0,*68
1521947150.91,40996,9.25,72380.0,-10.99,-41.41,-41.61,0,*61
1521947152.14,40997,9.25,72380.5,-10.97,-41.61,-41.93,0,*61
1521947153.38,40998,9.25,72376.8,-10.99,-41.61,-41.73,0,*6E
1521947154.63,40999,9.25,72380.0,-10.99,-41.61,-41.87,0,*64
1521947155.84,41000,9.25,72382.0,-10.97,-41.49,-41.73,0,*63
1521947157.13,41001,9.25,72380.5,-10.99,-41.67,-41.93,0,*6E
1521947158.37,41002,9.25,72380.0,-10.97,-41.67,-41.87,0,*66
1521947159.63,41003,9.25,72380.0,-10.99,-41.73,-41.93,0,*69
1521947160.87,41004,9.25,72378.3,-10.99,-41.61,-41.73,0,*63
1521947162.14,41005,9.25,72382.5,-10.99,-41.67,-41.73,0,*64
1521947163.42,41006,9.25,72380.3,-10.99,-41.67,-41.93,0,*69
1521947164.69,41007,9.25,72382.5,-10.99,-41.67,-41.87,0,*6D
1521947165.96,41008,9.25,72380.0,-10.99,-41.61,-41.67,0,*6A
1521947167.23,41009,9.25,72378.5,-10.99,-41.49,-41.67,0,*61
1521947168.49,41010,9.25,72382.0,-10.99,-41.73,-41.93,0,*6B
1521947169.75,41011,9.25,72382.0,-10.99,-41.73,-41.93,0,*6A
1521947170.99,41012,9.25,72380.0,-10.99,-41.61,-41.73,0,*64
1521947172.27,41013,9.25,72378.5,-10.99,-41.67,-41.93,0,*6D
1521947173.56,41014,9.25,72378.8,-11.03,-41.81,-41.93,0,*60
1521947174.8,41015,9.25,72378.8,-11.01,-41.67,-41.87,0,*6E
1521947176.07,41016,9.25,72378.8,-11.03,-41.67,-41.73,0,*64
1521947177.28,41017,9.25,72378.5,-11.01,-41.29,-41.49,0,*64
1521947178.5,41018,9.25,72378.0,-11.01,-41.61,-41.73,0,*6E
1521947179.74,41019,9.25,72378.5,-11.01,-41.41,-41.67,0,*68
1521947181.01,41020,9.25,72378.0,-11.03,-41.55,-41.73,0,*60
1521947182.22,41021,9.25,72382.0,-11.01,-41.29,-41.49,0,*61
1521947183.46,41022,9.25,72380.5,-10.99,-41.41,-41.61,0,*66
1521947184.69,41023,9.25,72376.8,-10.99,-41.49,-41.61,0,*6F
1521947185.91,41024,9.25,72380.5,-11.01,-41.61,-41.73,0,*61
1521947187.12,41025,9.25,72378.8,-11.01,-41.61,-41.73,0,*60
1521947188.37,41026,9.25,72378.5,-11.01,-41.67,-41.73,0,*65
1521947189.58,41027,9.25,72378.0,-11.01,-41.49,-41.73,0,*68
1521947190.83,41028,9.25,72378.5,-11.01,-41.67,-41.87,0,*60
1521947192.04,41029,9.25,72378.5,-11.01,-41.49,-41.73,0,*66
1521947193.25,41030,9.25,72382.3,-11.01,-41.29,-41.61,0,*6B
1521947194.54,41031,9.25,72378.5,-11.03,-41.67,-41.81,0,*6C
1521947195.79,41032,9.25,72378.8,-11.01,-41.67,-41.87,0,*6B
1521947197.08,41033,9.25,72380.8,-11.03,-41.67,-41.81,0,*6E
1521947198.37,41034,9.25,72378.0,-11.03,-41.55,-41.81,0,*68
1521947199.58,41035,9.25,72376.5,-11.01,-41.41,-41.61,0,*60
1521947200.82,41036,9.25,72380.8,-11.01,-41.49,-41.67,0,*6D
1521947202.06,41037,9.25,72378.0,-11.01,-41.29,-41.67,0,*6A
1521947203.34,41038,9.25,72380.3,-11.03,-41.49,-41.67,0,*61
1521947204.61,41039,9.25,72382.5,-11.03,-41.35,-41.73,0,*6E
1521947205.85,41040,9.25,72376.0,-11.01,-41.67,-41.87,0,*6E
1521947207.14,41041,9.25,72378.3,-11.03,-41.67,-41.93,0,*68
1521947208.41,41042,9.25,72382.0,-11.03,-41.67,-41.73,0,*65
1521947209.62,41043,9.25,72376.3,-11.01,-41.49,-41.73,0,*6A
1521947210.89,41044,9.25,72382.0,-11.03,-41.49,-41.55,0,*6B
1521947212.16,41045,9.25,72378.3,-11.03,-41.49,-41.67,0,*6B
1521947213.4,41046,9.25,72378.5,-11.03,-41.49,-41.73,0,*6D
1521947214.65,41047,9.25,72382.0,-11.03,-41.49,-41.73,0,*6C
1521947215.89,41048,9.25,72380.3,-11.01,-41.23,-41.49,0,*64
1521947217.09,41049,9.25,72382.0,-11.01,-41.29,-41.49,0,*6F
1521947218.36,41050,9.25,72378.0,-11.03,-41.55,-41.73,0,*67
1521947219.57,41051,9.25,72380.3,-11.01,-41.29,-41.49,0,*66
1521947220.86,41052,9.25,72380.8,-11.03,-41.67,-41.81,0,*69
1521947222.16,41053,9.25,72380.3,-11.03,-41.55,-41.67,0,*61
1521947223.45,41054,9.25,72376.3,-11.03,-41.55,-41.81,0,*6E
1521947224.69,41055,9.25,72380.5,-11.01,-41.41,-41.67,0,*60
1521947225.98,41056,9.25,72382.3,-11.03,-41.55,-41.81,0,*6C
1521947227.27,41057,9.25,72380.8,-11.03,-41.55,-41.81,0,*6D
1521947228.54,41058,9.25,72378.5,-11.03,-41.55,-41.73,0,*6F
1521947229.81,41059,9.25,72380.0,-11.03,-41.49,-41.67,0,*66
1521947231.08,41060,9.25,72376.3,-11.03,-41.49,-41.67,0,*6C
1521947232.29,41061,9.25,72378.0,-11.01,-41.49,-41.73,0,*6A
1521947233.56,41062,9.25,72378.5,-11.03,-41.55,-41.73,0,*66
1521947234.83,41063,9.25,72380.3,-11.03,-41.67,-41.73,0,*66
1521947236.12,41064,9.25,72382.5,-11.03,-41.55,-41.81,0,*6D
1521947237.37,41065,9.25,72382.3,-11.05,-41.67,-41.73,0,*66
1521947238.61,41066,9.25,72380.5,-11.05,-41.55,-41.73,0,*64
1521947239.86,41067,9.25,72380.0,-11.05,-41.49,-41.67,0,*6D
1521947241.12,41068,9.25,72382.5,-11.05,-41.55,-41.81,0,*67
1521947242.36,41069,9.25,72378.0,-11.05,-41.73,-41.81,0,*62
1521947243.6,41070,9.25,72378.8,-11.03,-41.49,-41.73,0,*68
1521947244.87,41071,9.25,72378.5,-11.03,-41.49,-41.67,0,*6C
1521947246.12,41072,9.25,72380.0,-11.03,-41.49,-41.73,0,*6A
1521947247.41,41073,9.25,72380.3,-11.03,-41.67,-41.93,0,*69
1521947248.64,41074,9.25,72378.8,-11.09,-41.73,-41.87,0,*64
1521947249.89,41075,9.25,72382.0,-11.05,-41.67,-41.73,0,*67
1521947251.13,41076,9.25,72378.0,-11.05,-41.29,-41.55,0,*6A
1521947252.37,41077,9.25,72378.3,-11.05,-41.55,-41.73,0,*64
1521947253.62,41078,9.25,72382.5,-11.05,-41.49,-41.67,0,*63
1521947254.89,41079,9.25,72376.8,-11.05,-41.67,-41.81,0,*66
1521947256.13,41080,9.25,72378.8,-11.05,-41.67,-41.73,0,*6D
1521947257.38,41081,9.25,72378.0,-11.05,-41.49,-41.67,0,*65
1521947258.6,41082,9.25,72382.8,-11.05,-41.49,-41.73,0,*63
1521947259.87,41083,9.25,72382.5,-11.05,-41.35,-41.55,0,*6D
1521947261.14,41084,9.25,72378.3,-11.03,-41.49,-41.67,0,*66
1521947262.42,41085,9.25,72382.5,-11.05,-41.35,-41.67,0,*6A
1521947263.67,41086,9.25,72378.3,-11.05,-41.49,-41.67,0,*62
1521947264.93,41087,9.25,72380.8,-11.09,-41.55,-41.73,0,*67
1521947266.2,41088,9.25,72376.0,-11.05,-41.55,-41.67,0,*61
1521947267.45,41089,9.25,72380.0,-11.05,-41.49,-41.67,0,*6D
1521947268.69,41090,9.25,72382.5,-11.05,-41.49,-41.55,0,*64
1521947269.97,41091,9.25,72378.8,-11.05,-41.35,-41.67,0,*6F
1521947271.22,41092,9.25,72378.3,-11.05,-41.67,-41.73,0,*6E
1521947272.43,41093,9.25,72380.5,-11.05,-41.49,-41.73,0,*63
1521947273.7,41094,9.25,72380.8,-11.05,-41.67,-41.81,0,*65
1521947274.97,41095,9.25,72380.0,-11.05,-41.67,-41.81,0,*64
1521947276.24,41096,9.25,72382.3,-11.05,-41.55,-41.81,0,*66
1521947277.48,41097,9.25,72382.3,-11.05,-41.61,-41.81,0,*60
1521947278.72,41098,9.25,72380.3,-11.05,-41.73,-41.81,0,*6C
1521947279.98,41099,9.25,72380.8,-11.09,-41.23,-41.73,0,*69
1521947281.25,41100,9.25,72380.8,-11.05,-41.35,-41.55,0,*67
1521947282.49,41101,9.25,72380.5,-11.09,-41.61,-41.73,0,*6F
1521947283.74,41102,9.25,72380.8,-11.05,-41.49,-41.67,0,*6F
1521947285.01,41103,9.25,72380.5,-11.05,-41.35,-41.55,0,*64
1521947286.24,41104,9.25,72380.0,-11.09,-41.41,-41.61,0,*6B
1521947287.48,41105,9.25,72384.3,-11.05,-41.29,-41.35,0,*69
1521947288.69,41106,9.25,72382.3,-11.05,-41.29,-41.49,0,*61
1521947289.95,41107,9.25,72382.5,-11.09,-41.35,-41.61,0,*6B
1521947291.23,41108,9.25,72376.8,-11.05,-41.35,-41.55,0,*6F
1521947292.47,41109,9.25,72382.3,-11.05,-41.35,-41.49,0,*63
1521947293.75,41110,9.25,72384.3,-11.05,-41.35,-41.67,0,*67
1521947294.96,41111,9.25,72380.0,-11.05,-41.17,-41.49,0,*6A
1521947296.24,41112,9.25,72380.5,-11.05,-41.35,-41.35,0,*62
1521947297.53,41113,9.25,72376.8,-11.03,-41.35,-41.55,0,*63
1521947298.74,41114,9.25,72384.8,-11.05,-41.29,-41.49,0,*62
1521947300.01,41115,9.25,72380.3,-11.03,-40.97,-41.17,0,*6A